Other Surface Observations
Issued by NWS

Home | Current Version | Previous Version | Text Only | Print | Product List | Glossary On
Versions: 1 2 3 4 5 6 7 8 9 10 11 12 13 14 15 16 17 18 19 20 21 22 23 24 25 26 27 28 29 30 31 32 33 34 35 36 37 38 39 40 41 42 43 44 45 46 47 48 49 50
344
SXUS52 KTAE 230918
OSOTAE
OSOTAE
North Florida/South Alabama/Southwest Georgia Weather Roundup
National Weather Service Tallahassee Florida
500 AM EDT WED MAY 23 2018

Note: "fair" indicates few or no clouds below 12,000 feet with no
significant weather and/or obstructions to visibility.

!FLZ017-115-028-034-025-231000
...North Florida...

CITY           SKY/WX    TMP DP  RH WIND       PRES   REMARKS
TALLAHASSEE    FAIR      72  70  93 E3        30.05R
APALACHICOLA   MOCLDY    78  74  87 S9        30.03S
PERRY          FAIR      71  69  96 CALM      30.07R
CROSS CITY     CLOUDY    71  70  99 SE3       30.07R
JACKSONVILLE   FAIR      67  66  97 CALM      30.07S
$$

!FLZ112-006-005-002-011-231000
...Florida Panhandle...

CITY           SKY/WX    TMP DP  RH WIND       PRES   REMARKS
MARIANNA       MOCLDY    73  72  96 S3        30.03S
BONIFAY        FOG       69  69 100 CALM      30.04S VSB 1
PANAMA CITY NW FAIR      73  70  90 E3        30.02S
TYNDALL AFB    MOCLDY    77  73  88 S8        30.03S
TYND DRONE APT PTSUNNY   76  72  89 S8        30.03S
DE FUNIAK SPR  FAIR      71  70  98 CALM      30.04S FOG
EGLIN AFB      PTCLDY    78  71  80 CALM      30.01S
DESTIN         FAIR      78  72  81 S5        30.02R
HURLBURT       PTCLDY    78  73  83 CALM      30.00S
CRESTVIEW      CLOUDY    68  67  96 CALM      30.04R FOG
PENSACOLA      CLOUDY    77  73  87 CALM      30.01S
$$

!ALZ063-066-231000
...South Alabama...

CITY           SKY/WX    TMP DP  RH WIND       PRES   REMARKS
DOTHAN         CLOUDY    73  71  93 SW7       30.07R
OZARK CAIRNS   FOG       73  72  94 S7        30.03S VSB 1
FT RUCKER HELI CLOUDY    72  72 100 CALM      30.04R
RUCKER HELI 3  CLOUDY    72  71  97 SW3       30.03R
RUCKER HELI 2  CLOUDY    71  71  99 CALM      30.03R FOG
FLORALA APT    FAIR      71  68  90 CALM      30.05R
ANDALUSIA      FAIR      74  71  91 S3        30.02F
TROY           CLOUDY    72  70  93 S3        30.04R
EUFALA         CLOUDY    75  73  93 S5        30.03R
MOBILE         FAIR      71  69  93 CALM      30.02S
$$

!GAZ120>161-231000
...Southwest and South Central Georgia...

CITY           SKY/WX    TMP DP  RH WIND       PRES   REMARKS
THOMASVILLE    FAIR     N/A N/A N/A CALM      30.06S
BAINBRIDGE     CLOUDY    73  73 100 S3        30.05R
MOODY AFB      FAIR      69  68  97 S5        30.06R
VALDOSTA       FAIR      69  68  96 S5        30.06S
MOULTRIE       FAIR      70  68  94 CALM      30.06S
BLAKELY        CLOUDY    72  70  94 CALM      30.05R
ALBANY         MOCLDY    72  71  97 SW3       30.06R
TIFTON         FAIR     N/A N/A N/A CALM      30.06S
FITZGERALD     FAIR      70  70 100 CALM      30.09R
CORDELE        PTSUNNY   71  70  96 SW5       30.06S
AMERICUS       CLOUDY    70  64  83 S5        30.07R HAZE
HOMERVILLE     FAIR      68  68 100 S3        30.08S
$$

!GMZ750-755-770-775-231000
...Coastal and Buoy Obs...

STATION/POSITION TIME  TEMP    WIND        PRES    VSBY  WAVE
                       AIR SEA DIR/SP/G                  HT/PER
                 (UTC) (F)     (DEG/KT/KT) (MB)    (MI)  (FT/S)
KEATON BEACH     0900   71     100/  6/  7 1018.1R
CEDAR KEY        0900   76     150/  9/ 10 1018.3R
C TOWER          0900   76     170/  8/  8 1017.4F
APALACHICOLA BUO NOT AVBL
PANAMA CITY BUOY 0850   78 80  140/ 10/ 12 1016.3R         3/ 6
MOBILE BUOY      0900      83  170/ 12/ 14 1016.1
ORANGE BCH AL BU 0900   81     180/  6/  8 1016.1
$$




USA.gov is the U.S. government's official web portal to all federal, state and local government web resources and services.